La Crosse, WI

4:02 AM CDT on June 26, 2017 (GMT -0500)
La Crosse Municipal

Weather History for KLSE - June, 2013

Change the Weather History Date:

Wednesday, June 26, 2013

  Actual Average Record
Temperature  
Mean Temperature 78 °F 72 °F  
Max Temperature 86 °F 83 °F 100 °F (1931)
Min Temperature 70 °F 62 °F 42 °F (1926)
Degree Days  
Heating Degree Days 0 0  
Month to date heating degree days 44 38  
Since 1 June heating degree days 44  
Since 1 July heating degree days 7471 7195  
Cooling Degree Days 13 8  
Month to date cooling degree days 127 134  
Year to date cooling degree days 187 182  
Since 1 June cooling degree days 127  
Growing Degree Days 28 (Base 50)    
Moisture  
Dew Point 71 °F    
Average Humidity 81    
Maximum Humidity 100    
Minimum Humidity 61    
Precipitation  
Precipitation T in 0.14 in 2.30 in (1990)
Month to date precipitation 5.60 3.74  
Year to date precipitation 24.53 14.81  
Snow  
Snow 0.00 in 0.00 in 0.00 in (2002)
Month to date snowfall 0.0 0.0  
Since 1 June snowfall 0.0  
Since 1 July snowfall 60.6 43.3  
Snow Depth 0.00 in    
Sea Level Pressure  
Sea Level Pressure 29.70 in    
Wind  
Wind Speed 6 mph (South)    
Max Wind Speed 15 mph    
Max Gust Speed 18 mph    
Visibility 8 miles    
Events Thunderstorm    
T = Trace of Precipitation, MM = Missing Value Source: NWS Daily Summary

Daily Weather History Graph

Daily Weather History Graph

Search for Another Location

Airport or City:

Trip Planner

Search our weather history database for the weather conditions in past years. The results will help you decide how hot, cold, wet, or windy it might be!

Date:

Astronomy

Jun. 26, 2013 Rise Set
Actual Time 5:24 AM CDT 8:51 PM CDT
Civil Twilight 4:48 AM CDT 9:27 PM CDT
Nautical Twilight 4:00 AM CDT 10:15 PM CDT
Astronomical Twilight 3:00 AM CDT 11:15 PM CDT
Moon 11:05 PM CDT 9:24 AM CDT
Length of Visible Light 16h 39m
Length of Day
15h 27m
Waning Gibbous, 85% of the Moon is Illuminated
Jun 26
Waning Gibbous
Jun 29
Last Quarter
Jul 8
New
Jul 15
First Quarter
Jul 22
Full

Hourly Weather History & Observations

Time (CDT) Temp. Heat Index Dew Point Humidity Pressure Visibility Wind Dir Wind Speed Gust Speed Precip Events Conditions
12:53 AM 73.0 °F - 72.0 °F 96% 29.70 in 8.0 mi Calm Calm - N/A   Clear
1:53 AM 73.9 °F - 71.1 °F 91% 29.70 in 7.0 mi ESE 4.6 mph - N/A   Clear
2:53 AM 73.0 °F - 71.1 °F 93% 29.68 in 7.0 mi ESE 5.8 mph - N/A   Clear
3:53 AM 72.0 °F - 70.0 °F 93% 29.68 in 5.0 mi East 4.6 mph - N/A   Clear
4:53 AM 72.0 °F - 70.0 °F 93% 29.66 in 5.0 mi Calm Calm - N/A   Clear
5:16 AM 71.6 °F - 69.8 °F 94% 29.69 in 2.5 mi Calm Calm - N/A   Clear
5:25 AM 71.6 °F - 69.8 °F 94% 29.69 in 3.0 mi Calm Calm - N/A   Clear
5:53 AM 71.1 °F - 70.0 °F 96% 29.68 in 4.0 mi Calm Calm - N/A   Clear
6:53 AM 72.0 °F - 71.1 °F 97% 29.69 in 4.0 mi SE 4.6 mph - N/A   Clear
7:53 AM 73.0 °F - 71.1 °F 93% 29.70 in 6.0 mi ESE 3.5 mph - N/A   Clear
8:53 AM 75.9 °F - 72.0 °F 87% 29.72 in 10.0 mi SW 6.9 mph - N/A   Partly Cloudy
9:53 AM 80.1 °F 82.9 °F 69.1 °F 69% 29.69 in 10.0 mi South 10.4 mph - N/A   Clear
10:53 AM 80.1 °F 83.2 °F 70.0 °F 71% 29.68 in 10.0 mi South 10.4 mph - N/A   Clear
11:53 AM 81.0 °F 84.9 °F 71.1 °F 72% 29.72 in 10.0 mi South 10.4 mph - N/A   Mostly Cloudy
12:53 PM 82.0 °F 85.9 °F 70.0 °F 67% 29.70 in 10.0 mi South 9.2 mph - N/A   Partly Cloudy
1:53 PM 84.0 °F 88.4 °F 70.0 °F 63% 29.69 in 10.0 mi SW 9.2 mph - N/A   Mostly Cloudy
2:02 PM 82.4 °F 86.3 °F 69.8 °F 66% 29.72 in 10.0 mi SSW 12.7 mph - N/A   Overcast
2:18 PM 84.2 °F 88.4 °F 69.8 °F 62% 29.72 in 10.0 mi SW 12.7 mph - N/A   Scattered Clouds
2:53 PM 84.9 °F 89.4 °F 70.0 °F 61% 29.69 in 10.0 mi SSW 11.5 mph - N/A   Clear
3:53 PM 82.9 °F 87.0 °F 70.0 °F 65% 29.70 in 10.0 mi South 8.1 mph - N/A   Clear
4:53 PM 81.0 °F 84.9 °F 71.1 °F 72% 29.67 in 10.0 mi SSW 6.9 mph - N/A   Overcast
5:08 PM 82.4 °F 87.2 °F 71.6 °F 70% 29.71 in 10.0 mi WSW 4.6 mph - N/A   Overcast
5:39 PM 82.4 °F 87.2 °F 71.6 °F 70% 29.72 in 10.0 mi West 4.6 mph - N/A   Scattered Clouds
5:53 PM 82.9 °F 88.0 °F 72.0 °F 69% 29.67 in 10.0 mi SW 4.6 mph - N/A   Partly Cloudy
6:43 PM 82.4 °F 88.2 °F 73.4 °F 74% 29.72 in 10.0 mi West 5.8 mph - 0.00 in Thunderstorm Partly Cloudy
6:53 PM 82.9 °F 89.4 °F 73.9 °F 74% 29.69 in 10.0 mi SSW 8.1 mph - 0.00 in Thunderstorm Partly Cloudy
7:00 PM 82.4 °F 88.2 °F 73.4 °F 74% 29.71 in 10.0 mi SSW 8.1 mph - N/A   Partly Cloudy
7:53 PM 78.1 °F - 70.0 °F 76% 29.69 in 10.0 mi SSW 6.9 mph - N/A   Clear
8:53 PM 75.0 °F - 70.0 °F 84% 29.70 in 10.0 mi SSE 3.5 mph - N/A   Clear
9:53 PM 73.9 °F - 69.1 °F 85% 29.73 in 10.0 mi Calm Calm - N/A   Clear
10:53 PM 73.0 °F - 71.1 °F 93% 29.74 in 10.0 mi South 4.6 mph - N/A   Clear
11:53 PM 73.0 °F - 70.0 °F 90% 29.75 in 10.0 mi SSW 3.5 mph - N/A   Clear